Tracking 25744 objects as of 25-Jun-2022
HD Live streaming from Space Station
objects crossing your sky now

STARLINK-1299

Track STARLINK-1299 now!
10-day predictions
STARLINK-1299 is classified as:


NORAD ID: 45418
Int'l Code: 2020-019BL
Perigee: 553.2 km
Apogee: 556.5 km
Inclination: 53.0 °
Period: 95.6 minutes
Semi major axis: 6925 km
RCS: Unknown
Launch date: March 18, 2020
Source: United States (US)
Launch site: AIR FORCE EASTERN TEST RANGE (AFETR)
aabbcc
Your satellite tracking list
Your tracking list is empty




NASA's NSSDC Master Catalog

Two Line Element Set (TLE):
1 45418U 20019BL  22175.33625269  .00013040  00000-0  89681-3 0  9990
2 45418  52.9980 148.0946 0002390  47.4628 312.6562 15.06226862124981
Source of the keplerian elements: AFSPC